RH
83 85 83 84 83 83 83 84 84 85 86 88 89 89 91 93 88 65 17 19 28 81 63 49 65 76 72 66 61 69 88 41 23 26 28 25 32 32 32 40 36 35 39 39 38
84 84 84 83 84 84 84 84 84 87 88 89 89 89 91 92 61 28 34 60 79 80 43 52 61 76 88 74 63 86 79 35 21 23 26 23 25 30 39 39 41 39 36 35 41
84 84 84 83 83 86 84 84 84 85 89 89 89 88 91 90 48 24 64 65 80 73 37 35 39 47 62 65 59 53 52 32 20 21 20 24 27 31 38 45 41 44 40 37 40
87 86 85 85 85 85 84 84 85 86 90 89 89 88 91 71 26 18 60 63 70 44 31 37 40 54 63 57 51 55 43 28 24 25 22 25 29 32 36 39 34 36 36 36 40
85 84 84 85 85 85 84 85 85 89 90 89 88 88 72 41 16 37 64 64 44 34 39 35 33 49 53 48 48 55 41 24 20 20 22 22 27 31 34 31 31 32 33 35 37
87 87 88 85 85 85 85 86 91 91 90 88 88 88 56 28 20 40 41 44 37 41 38 31 32 34 43 54 57 49 40 28 26 20 23 26 28 29 30 28 30 31 33 34 35
89 91 91 86 88 86 87 90 92 90 89 86 85 62 43 24 17 29 30 30 30 32 30 25 19 29 44 52 45 47 48 42 35 34 38 27 35 34 29 29 31 32 33 34 34
90 90 91 90 87 88 90 93 92 88 87 85 82 70 27 19 21 22 26 23 22 23 27 25 14 22 41 49 52 56 67 69 49 40 41 38 60 32 31 34 37 35 33 34 38
90 90 90 91 92 91 92 94 89 84 82 80 77 69 23 26 15 15 20 20 19 17 16 9 15 32 46 59 72 67 68 61 57 46 40 47 57 32 32 34 37 38 37 38 37
89 89 90 90 91 92 94 91 81 79 66 52 38 40 26 16 16 13 15 16 13 10 9 15 21 33 46 68 72 64 67 62 61 53 46 57 59 45 32 34 34 38 40 37 40
88 88 89 89 89 91 85 53 39 37 52 20 24 23 16 16 12 13 10 12 11 9 14 14 24 32 30 48 47 50 64 48 51 53 53 40 60 48 32 34 35 39 41 41 41
88 88 88 87 88 92 91 40 33 25 20 22 16 19 14 13 12 11 9 11 13 12 13 14 19 15 17 28 43 50 55 60 52 47 43 57 58 46 43 33 32 33 36 41 40
88 88 87 86 88 82 47 30 24 19 26 16 17 15 13 10 12 12 8 10 11 12 12 16 14 13 14 34 44 55 52 52 49 46 51 53 53 50 44 43 30 30 30 37 39
87 86 87 90 58 54 36 26 23 19 29 20 18 11 10 9 11 8 7 8 13 10 11 12 9 9 12 18 22 39 37 37 43 53 67 46 64 54 47 51 38 31 30 33 39
87 86 86 89 67 51 24 27 25 18 37 19 14 8 9 10 11 10 8 11 10 9 12 11 11 12 15 13 15 15 13 20 33 54 59 53 61 44 44 60 52 43 32 32 35
86 86 85 85 87 54 43 35 19 28 32 15 9 10 12 13 10 11 9 11 10 12 16 14 11 11 11 10 11 12 10 12 18 26 28 36 54 48 51 49 58 45 40 39 31
85 85 89 54 35 39 37 28 30 32 17 14 13 12 14 13 12 12 13 14 16 34 22 15 13 12 9 11 10 10 15 20 24 24 27 34 45 36 42 42 44 42 33 32 34
86 88 81 56 55 42 33 31 47 24 22 15 13 14 13 12 12 11 16 18 16 18 23 21 20 13 11 10 11 12 13 19 21 26 24 15 37 48 39 36 36 33 29 30 40
88 62 49 47 49 46 36 47 37 31 19 20 18 16 17 12 12 13 16 17 15 15 18 22 20 13 11 10 8 12 15 13 17 33 17 20 47 40 44 46 44 47 45 50 45
92 72 51 32 42 34 39 55 36 24 20 22 29 21 23 17 16 18 15 14 14 13 14 17 20 13 10 10 10 9 10 13 20 26 21 19 58 54 54 48 44 43 43 44 37
65 39 26 35 28 37 42 43 29 21 20 22 26 26 20 21 22 27 17 13 11 13 14 16 18 14 17 14 12 12 14 22 16 22 20 22 20 34 42 40 42 44 44 49 47
81 44 29 28 38 53 45 35 34 22 18 20 21 22 19 21 25 24 22 20 17 16 14 16 19 17 16 13 10 10 10 14 19 18 27 25 25 16 33 40 41 40 40 44 47
83 64 31 27 44 47 40 31 27 25 25 21 25 24 24 27 29 25 24 17 16 19 20 17 22 23 19 17 16 14 12 17 19 23 18 20 18 37 39 40 35 38 44 42 44
78 54 36 39 42 46 41 38 26 19 24 21 27 23 26 27 32 30 32 23 25 27 56 35 21 18 15 17 17 17 13 12 15 22 19 22 18 56 44 39 41 45 48 53 54
77 56 67 58 48 49 41 32 23 21 21 20 24 26 30 40 41 46 43 39 32 49 35 24 22 22 20 15 16 17 14 15 17 15 16 11 23 41 48 40 40 56 61 66 77
84 82 77 79 65 50 56 36 31 28 24 22 25 22 40 57 60 58 51 58 49 40 42 43 40 35 24 16 16 16 14 14 17 14 17 16 17 22 41 59 58 58 61 76 84
93 86 80 78 68 57 52 43 38 35 27 24 25 38 47 47 43 46 48 47 46 60 50 49 51 52 47 27 19 17 16 15 16 17 15 19 14 21 55 51 51 60 60 79 88
Wind_Speed
13 13 13 12 13 13 13 13 13 13 13 14 13 13 12 14 17 3 4 8 4 13 10 16 19 13 8 6 5 2 3 2 6 10 4 8 12 6 11 20 11 5 10 6 15
14 14 14 13 13 13 13 13 13 11 12 13 12 12 11 12 3 6 8 6 8 10 6 10 17 17 4 3 2 2 4 4 6 7 9 8 16 14 11 16 17 15 8 9 19
15 15 15 15 14 13 13 13 13 13 12 12 11 12 11 9 2 7 4 8 10 6 3 3 5 12 8 6 3 3 4 10 7 6 12 9 10 9 19 15 21 21 16 10 14
15 16 16 16 16 15 14 14 13 12 11 10 11 11 11 2 4 2 4 6 8 5 3 4 3 3 5 0 5 4 9 9 6 9 11 9 12 7 16 13 18 18 17 10 10
16 17 17 17 16 16 15 13 12 11 9 9 9 10 3 2 7 5 6 5 4 4 5 2 2 5 5 3 7 1 11 17 12 8 9 13 9 11 15 16 16 16 15 14 14
15 15 15 17 17 16 14 13 12 9 7 7 7 8 1 2 3 10 7 4 3 3 0 1 3 2 8 3 3 3 8 11 10 14 15 19 14 10 11 14 15 15 14 13 15
16 16 17 18 17 16 14 13 12 9 5 4 5 3 1 10 6 8 9 6 3 2 2 4 3 3 7 4 5 4 2 7 13 9 6 14 6 6 14 14 13 12 11 10 10
17 17 17 17 17 16 15 14 11 8 5 4 3 1 6 4 8 6 4 3 6 6 5 10 3 3 6 3 6 5 5 4 7 9 8 8 2 8 10 14 11 10 10 8 7
20 19 17 16 16 17 17 16 11 4 4 5 2 1 8 2 5 7 7 5 4 6 8 9 4 4 3 9 4 7 4 2 3 5 4 6 5 9 9 12 11 9 8 10 9
16 19 20 17 16 15 18 8 2 0 3 4 4 2 5 5 4 6 7 6 5 3 4 3 4 4 3 3 5 6 7 4 5 5 1 4 6 8 13 11 12 7 10 14 11
22 19 19 19 17 15 10 3 5 2 1 9 5 4 4 3 3 3 6 1 2 4 2 3 4 7 13 13 7 8 1 9 4 1 1 6 3 7 19 13 11 8 11 12 13
22 22 21 19 15 10 1 2 7 3 7 11 13 8 7 4 3 5 7 5 3 3 3 6 7 11 5 5 15 14 6 5 3 11 3 1 9 9 10 15 15 15 13 15 12
22 22 24 23 20 4 3 8 6 7 1 8 8 6 6 9 7 9 11 6 4 3 5 6 11 9 5 7 14 7 12 6 1 7 4 3 7 4 4 5 13 14 15 15 19
23 22 21 30 2 4 5 6 8 6 5 8 4 7 4 6 4 8 8 7 2 10 7 7 9 8 8 7 12 8 15 10 10 9 6 8 5 4 8 6 13 14 15 16 17
23 23 20 10 3 3 7 9 8 7 3 3 4 3 8 9 3 2 8 3 7 6 6 10 6 7 4 6 3 7 10 8 10 10 4 7 3 8 9 7 10 16 14 13 18
24 21 17 4 2 9 8 9 6 7 4 4 6 6 7 2 2 4 6 1 3 4 2 9 5 4 7 5 4 1 5 9 4 4 2 6 9 7 10 19 7 16 13 14 14
27 24 5 3 5 3 5 6 7 3 6 2 4 6 6 5 3 7 8 6 5 3 6 9 9 6 4 4 5 7 8 4 5 5 7 1 6 11 9 16 19 22 26 24 14
30 24 9 6 6 5 5 7 2 4 4 4 1 3 9 7 7 7 6 6 6 6 2 2 11 5 3 9 9 5 10 8 6 4 6 6 5 8 13 22 21 25 22 10 8
25 4 2 6 7 3 7 4 7 3 5 10 9 4 5 5 6 6 10 9 10 12 9 6 8 3 6 4 10 4 4 9 4 1 4 4 6 7 7 3 8 11 7 8 12
4 5 4 3 8 6 6 4 4 2 8 3 2 1 2 3 2 2 6 9 9 14 9 8 4 8 9 3 4 11 5 3 4 3 5 5 4 6 6 8 7 9 14 12 14
4 6 5 5 6 7 3 6 5 7 6 7 7 7 5 4 3 0 6 8 6 6 13 9 6 12 1 5 9 2 1 4 6 6 6 2 8 7 13 16 15 11 10 11 13
4 3 5 4 5 1 2 4 5 11 10 9 5 8 5 1 3 5 6 3 2 2 6 12 8 11 13 8 9 9 11 8 7 8 4 5 9 5 14 18 14 12 11 8 8
3 4 6 5 2 4 8 6 4 8 7 7 5 5 2 3 2 4 3 5 7 4 4 2 5 4 9 8 4 5 7 5 4 5 7 5 9 4 4 9 14 13 10 9 10
3 5 7 6 2 4 7 5 8 7 6 6 4 7 9 8 1 5 3 3 7 9 10 0 4 9 13 11 6 4 5 9 8 5 6 8 7 2 8 13 9 8 8 8 9
4 2 0 5 5 5 3 4 6 8 4 7 7 4 4 5 7 7 6 7 6 7 9 5 2 3 6 7 7 6 5 4 4 8 8 15 10 9 15 17 16 10 10 14 14
3 4 6 4 4 6 2 4 4 9 6 9 6 12 6 5 2 4 5 4 4 9 8 6 4 7 6 5 4 3 8 6 3 5 5 6 6 8 7 6 9 16 15 15 14
4 4 4 5 5 4 1 6 9 11 8 9 7 3 3 3 3 4 4 6 7 2 4 2 4 6 5 7 5 9 5 6 5 3 5 5 11 6 6 16 18 15 17 18 16
Wind_Direction
353 350 345 340 335 328 326 326 322 323 325 324 329 326 327 324 309 166 234 220 158 148 144 126 114 152 19 340 66 294 5 230 141 118 189 117 122 125 124 132 144 132 132 163 126
351 347 341 338 333 326 324 323 318 321 322 321 324 323 325 329 298 260 247 159 117 157 143 166 163 142 253 270 127 78 312 233 186 140 146 132 130 132 129 144 117 127 128 116 129
347 345 341 337 335 330 325 321 316 317 317 319 319 320 318 319 299 252 197 163 133 174 273 302 263 163 164 169 166 234 284 321 165 147 139 135 103 104 119 136 145 145 147 139 130
346 344 339 337 334 330 325 318 314 311 313 315 316 319 314 258 142 259 176 127 137 206 204 217 215 45 136 262 139 328 240 349 182 158 142 130 127 125 131 144 143 144 152 148 161
348 343 341 337 333 330 324 319 315 310 311 313 315 321 323 19 248 149 152 132 152 186 207 278 215 149 96 289 354 220 310 46 56 100 104 104 106 115 123 140 146 153 160 169 176
338 334 337 343 336 331 327 319 312 310 309 304 306 315 342 310 141 144 146 141 224 219 300 174 284 284 84 221 123 1 293 79 42 96 110 110 117 111 144 145 154 164 177 178 183
333 329 330 338 338 330 325 316 312 308 299 286 286 286 38 237 153 162 155 189 221 194 278 244 258 131 129 140 338 294 87 19 30 357 56 102 84 130 155 149 161 177 188 187 180
338 335 332 333 339 333 326 315 309 300 270 239 239 255 244 260 136 155 178 277 262 239 226 269 329 341 110 33 344 70 68 62 324 4 2 102 109 158 170 150 179 187 196 183 159
335 333 331 329 327 334 324 312 295 275 205 150 135 117 267 302 176 207 159 215 239 275 238 263 67 122 56 106 357 26 262 102 337 7 145 60 132 182 185 171 191 184 192 152 151
337 331 329 330 328 326 316 274 149 140 174 201 251 339 274 223 208 168 206 209 251 301 326 183 97 118 79 99 191 223 151 252 187 229 115 161 214 197 194 182 192 178 155 156 161
336 334 329 324 329 332 341 80 33 21 199 196 206 243 273 240 100 177 198 247 10 38 241 315 81 214 205 199 168 160 190 187 191 342 131 236 176 228 181 195 185 182 174 170 168
333 330 327 325 323 321 219 124 210 185 300 220 238 250 260 230 170 237 105 143 120 231 328 354 263 250 312 273 158 167 182 237 136 201 141 89 270 220 176 195 191 186 180 175 170
332 330 327 325 324 118 181 231 260 55 339 289 192 194 218 146 182 214 142 170 164 227 235 188 252 327 279 146 148 199 186 209 116 164 34 91 296 236 227 223 193 196 184 179 174
331 329 332 325 85 322 256 258 289 140 52 278 187 256 148 128 263 188 177 144 236 205 235 233 264 257 298 205 168 155 220 222 142 144 214 163 258 253 203 182 193 195 192 185 179
328 327 331 326 279 322 265 313 302 59 35 158 187 201 158 152 208 220 162 99 197 234 98 246 295 302 278 237 165 221 181 190 173 182 157 197 62 267 177 198 214 191 205 197 186
326 322 328 123 228 241 318 314 51 49 278 218 165 160 120 223 264 36 144 109 183 234 236 244 247 213 227 275 241 303 45 31 58 167 331 166 172 269 187 196 180 181 198 203 194
325 316 289 282 229 317 325 39 47 129 328 206 195 137 161 190 233 144 163 202 175 64 316 329 294 283 215 282 338 74 56 354 350 354 218 277 160 236 205 179 183 171 198 203 185
325 314 193 218 256 354 47 53 133 250 287 342 74 88 175 175 240 177 152 193 265 124 112 211 317 209 248 191 188 177 148 157 200 222 267 335 285 270 171 177 183 183 201 201 190
320 333 253 255 201 106 73 85 207 223 19 346 347 95 287 235 186 164 191 198 202 173 171 177 263 300 295 199 156 238 191 185 144 95 34 266 302 356 19 67 157 183 243 202 226
338 343 265 280 129 69 75 228 260 18 354 14 17 265 161 306 149 168 197 204 212 191 165 223 272 249 267 103 311 151 176 80 15 206 215 280 227 216 218 219 186 181 198 214 188
22 21 272 157 74 53 146 234 294 303 344 348 291 260 232 194 141 68 259 289 238 250 183 170 154 251 91 180 192 65 196 77 124 142 167 219 261 227 200 195 192 194 192 168 163
359 45 281 52 50 63 186 229 305 309 312 257 229 246 232 57 195 198 221 188 317 252 210 215 180 232 237 228 180 180 194 147 140 260 212 160 261 271 212 184 178 179 172 177 163
24 276 309 85 130 334 325 313 331 345 336 350 314 348 307 148 2 179 235 274 309 338 305 183 246 223 304 342 15 178 193 167 122 85 232 166 266 338 137 173 185 167 173 164 160
45 14 330 33 92 75 0 327 333 318 290 15 305 357 0 336 157 271 331 323 21 13 341 58 175 197 219 209 173 196 216 193 149 124 221 217 257 228 158 180 187 170 168 151 120
38 333 46 325 339 348 351 269 330 331 344 2 337 334 309 302 336 6 347 335 352 16 0 63 286 273 264 191 164 189 225 273 182 227 164 245 192 223 183 182 185 146 141 125 121
61 30 345 289 308 356 348 294 314 337 346 321 359 327 20 70 103 309 359 7 285 343 9 356 303 10 311 264 197 220 192 205 222 240 228 262 238 235 160 80 142 156 149 138 137
330 338 93 285 327 15 299 336 316 331 304 330 307 322 348 160 204 226 222 244 240 344 336 32 30 5 287 328 310 258 189 185 189 206 189 247 238 161 186 171 175 171 159 154 149